CW6531 Weather Reports


Display with metric or nautical units.
time (UTC)temp
F
wind
direction
speed
MPH
gust
MPH
rain 1hr
in
rain 24hr
in
rain mn
in
humidity
%
barometer
mb
20260505102103 40 2 6.0 12.0 0.01 0.19 0.17 85 1014.1
20260505101105 41 4 6.0 9.0 0.01 0.19 0.17 85 1013.8
20260505100126 42 23 5.0 7.0 0.00 0.18 0.16 85 1013.9
20260505095104 42 30 2.0 11.0 0.04 0.17 0.15 85 1013.6
20260505094103 42 29 5.0 7.0 0.04 0.17 0.15 85 1013.5
20260505093104 42 26 3.0 7.0 0.03 0.16 0.14 85 1013.4
20260505092104 43 25 3.0 9.0 0.02 0.15 0.13 85 1013.6
20260505091104 43 19 3.0 6.0 0.01 0.14 0.12 85 1013.5
20260505085104 43 16 3.0 5.0 0.02 0.13 0.11 84 1013.4
20260505084105 43 26 4.0 7.0 0.01 0.12 0.10 83 1013.2
20260505083103 43 26 3.0 5.0 0.01 0.12 0.10 84 1013.1
20260505082104 43 33 4.0 7.0 0.01 0.12 0.10 85 1013.1
20260505081125 43 40 3.0 6.0 0.01 0.12 0.10 86 1013.2
20260505080105 43 47 4.0 6.0 0.01 0.12 0.10 85 1013.0
20260505075103 44 74 4.0 9.0 0.05 0.11 0.09 86 1013.2
20260505074104 44 24 2.0 10.0 0.04 0.10 0.08 85 1013.0
20260505073104 44 5 4.0 10.0 0.04 0.10 0.08 84 1013.1
20260505072104 44 358 5.0 12.0 0.03 0.09 0.07 83 1013.1
20260505071104 46 349 8.0 14.0 0.02 0.08 0.06 81 1012.9
20260505070104 48 336 6.0 9.0 0.00 0.06 0.04 81 1013.0
20260505065103 49 321 5.0 8.0 0.03 0.05 0.03 83 1013.0
20260505064104 49 339 0.0 4.0 0.03 0.05 0.03 83 1012.8
20260505063104 50 175 1.0 2.0 0.02 0.04 0.02 82 1012.7
20260505062103 50 175 0.0 1.0 0.00 0.02 0.00 81 1012.7
20260505061104 50 176 0.0 2.0 0.00 0.02 0.00 81 1012.7
20260505060103 50 173 0.0 2.0 0.00 0.02 0.00 80 1012.6
20260505055104 50 158 1.0 2.0 0.00 0.02 0.02 81 1012.4
20260505054103 49 228 0.0 0.0 0.00 0.02 0.02 82 1012.3
20260505053105 49 228 0.0 0.0 0.00 0.02 0.02 81 1012.3
20260505052103 49 228 0.0 0.0 0.00 0.02 0.02 82 1012.4
20260505051103 49 228 0.0 2.0 0.00 0.02 0.02 82 1012.4
20260505050104 49 177 1.0 3.0 0.00 0.02 0.02 81 1012.4
20260505041104 50 190 0.0 2.0 0.00 0.02 0.02 79 1012.5
20260505040103 50 189 1.0 3.0 0.00 0.02 0.02 78 1012.3
20260505035103 51 189 2.0 4.0 0.01 0.02 0.02 78 1012.2
20260505034125 51 180 0.0 2.0 0.01 0.02 0.02 77 1012.3
20260505033103 51 228 0.0 4.0 0.01 0.02 0.02 76 1012.3
20260505032103 51 240 2.0 4.0 0.00 0.01 0.01 75 1012.2
20260505031103 51 229 1.0 7.0 0.00 0.01 0.01 73 1012.2
20260505030125 52 269 3.0 7.0 0.00 0.01 0.01 72 1012.0
20260505025104 52 253 3.0 6.0 0.01 0.01 0.01 71 1011.4
20260505024104 53 243 2.0 4.0 0.00 0.00 0.00 66 1011.3
20260505023103 53 13 2.0 2.0 0.00 0.00 0.00 65 1011.1
20260505022104 53 344 0.0 4.0 0.00 0.00 0.00 64 1011.0
20260505021103 53 353 2.0 7.0 0.00 0.00 0.00 65 1011.0
20260505020103 53 340 4.0 11.0 0.00 0.00 0.00 65 1011.3
20260505015103 53 340 5.0 11.0 0.00 0.00 0.00 65 1011.1
20260505014103 53 333 5.0 9.0 0.00 0.00 0.00 66 1011.0
20260505013105 54 331 5.0 12.0 0.00 0.00 0.00 65 1011.0
20260505012103 54 337 6.0 10.0 0.00 0.00 0.00 64 1011.0
20260505011103 55 306 5.0 12.0 0.00 0.00 0.00 63 1011.1
20260505010104 58 291 5.0 10.0 0.00 0.00 0.00 58 1011.0
20260505005103 58 321 3.0 5.0 0.00 0.00 0.00 52 1010.9
20260505004124 59 335 2.0 8.0 0.00 0.00 0.00 50 1010.6
20260505003103 59 333 3.0 8.0 0.00 0.00 0.00 50 1010.6
20260505002124 59 357 3.0 7.0 0.00 0.00 0.00 49 1010.7
20260505001102 59 5 2.0 5.0 0.00 0.00 0.00 52 1010.6
20260504235102 58 32 2.0 5.0 0.00 0.00 0.00 55 1010.4
20260504234124 58 19 3.0 9.0 0.00 0.00 0.00 54 1010.5
20260504233103 58 352 4.0 14.0 0.00 0.00 0.00 52 1010.6
20260504232104 60 311 6.0 17.0 0.00 0.00 0.00 50 1010.6
20260504231103 63 279 11.0 17.0 0.00 0.00 0.00 37 1010.2
20260504225103 64 299 4.0 9.0 0.00 0.00 0.00 32 1009.7
20260504224103 64 343 5.0 8.0 0.00 0.00 0.00 31 1009.5
20260504223103 64 353 3.0 8.0 0.00 0.00 0.00 32 1009.5
20260504222124 64 22 2.0 6.0 0.00 0.00 0.00 34 1009.5
20260504221102 63 3 3.0 7.0 0.00 0.00 0.00 35 1009.1
20260504215103 62 25 2.0 11.0 0.00 0.00 0.00 39 1009.4
20260504214103 63 275 8.0 18.0 0.00 0.00 0.00 40 1009.9
20260504213124 64 282 10.0 18.0 0.00 0.00 0.00 32 1010.1
20260504212103 65 311 8.0 22.0 0.00 0.00 0.00 28 1010.2
20260504211124 65 307 10.0 19.0 0.00 0.00 0.00 27 1010.1
20260504205105 66 12 7.0 16.0 0.00 0.00 0.00 26 1009.7
20260504204105 67 353 10.0 20.0 0.00 0.00 0.00 25 1009.4
20260504203105 68 0 12.0 22.0 0.00 0.00 0.00 23 1009.1
20260504202105 69 8 9.0 21.0 0.00 0.00 0.00 22 1009.0
20260504201105 71 351 11.0 20.0 0.00 0.00 0.00 19 1009.0
20260504200105 73 329 8.0 20.0 0.00 0.00 0.00 16 1009.1
20260504195105 75 316 8.0 16.0 0.00 0.00 0.00 17 1008.9
20260504194104 76 308 9.0 20.0 0.00 0.00 0.00 17 1008.9
20260504193105 76 296 6.0 18.0 0.00 0.00 0.00 17 1008.8
20260504192125 76 280 7.0 16.0 0.00 0.00 0.00 16 1008.7
20260504191105 76 336 8.0 13.0 0.00 0.00 0.00 16 1008.7
20260504190105 76 267 8.0 20.0 0.00 0.00 0.00 15 1008.8
20260504185104 76 244 6.0 12.0 0.00 0.00 0.00 16 1008.8
20260504184105 75 276 11.0 18.0 0.00 0.00 0.00 16 1008.9
20260504183106 75 267 11.0 19.0 0.00 0.00 0.00 17 1009.0
20260504182105 75 247 10.0 19.0 0.00 0.00 0.00 17 1009.2
20260504181105 74 250 7.0 16.0 0.00 0.00 0.00 19 1009.2
20260504180105 73 242 9.0 19.0 0.00 0.00 0.00 19 1009.2
20260504175105 72 254 6.0 20.0 0.00 0.00 0.00 20 1009.4
20260504174105 71 263 9.0 18.0 0.00 0.00 0.00 22 1009.6
20260504173127 71 253 8.0 18.0 0.00 0.00 0.00 21 1009.7
20260504172105 70 269 9.0 16.0 0.00 0.00 0.00 22 1009.7
20260504171105 69 259 9.0 20.0 0.00 0.00 0.00 22 1009.8
20260504170104 69 260 8.0 15.0 0.00 0.00 0.00 22 1009.8
20260504160105 65 245 4.0 10.0 0.00 0.00 0.00 26 1010.0
20260504151105 58 236 2.0 4.0 0.00 0.00 0.00 37 1010.2
20260504150104 57 226 1.0 4.0 0.00 0.00 0.00 38 1010.3
20260504141105 51 164 1.0 2.0 0.00 0.00 0.00 45 1010.5
20260504140125 50 164 0.0 2.0 0.00 0.00 0.00 46 1010.5
20260504130104 44 211 1.0 2.0 0.00 0.00 0.00 52 1010.4